NW Arkansas Airport, AR

3:40 PM CDT on October 19, 2017 (GMT -0500)
Northwest Arkansas Regional

Weather History for KXNA - July, 2013

Change the Weather History Date:

Thursday, July 4, 2013

  Actual Average (KVBT) Record (KVBT)
Temperature  
Mean Temperature 72 °F -  
Max Temperature 87 °F 87 °F 99 °F (1954)
Min Temperature 57 °F 66 °F 52 °F (1968)
Cooling Degree Days 6    
Growing Degree Days 22 (Base 50)    
Moisture  
Dew Point 54 °F    
Average Humidity 56    
Maximum Humidity 87    
Minimum Humidity 28    
Precipitation  
Precipitation 0.00 in - - ()
Sea Level Pressure  
Sea Level Pressure 30.01 in    
Wind  
Wind Speed 3 mph (SSE)    
Max Wind Speed 10 mph    
Max Gust Speed -    
Visibility 10 miles    
Events      
Averages and records for this station are not official NWS values.
T = Trace of Precipitation, MM = Missing Value Source: NWS Daily Summary

Daily Weather History Graph

Daily Weather History Graph

Search for Another Location

Airport or City:

Trip Planner

Search our weather history database for the weather conditions in past years. The results will help you decide how hot, cold, wet, or windy it might be!

Date:

Astronomy

Jul. 04, 2013 Rise Set
Actual Time 6:04 AM CDT 8:38 PM CDT
Civil Twilight 5:34 AM CDT 9:08 PM CDT
Nautical Twilight 4:57 AM CDT 9:45 PM CDT
Astronomical Twilight 4:15 AM CDT 10:27 PM CDT
Moon 3:19 AM CDT (7/4) 5:45 PM CDT (7/4)
Length of Visible Light 15h 33m
Length of Day
14h 33m
Waning Crescent, 11% of the Moon is Illuminated
Jul 4
Waning Crescent
Jul 8
New
Jul 15
First Quarter
Jul 22
Full
Jul 29
Last Quarter

Hourly Weather History & Observations

Time (CDT) Temp. Heat Index Dew Point Humidity Pressure Visibility Wind Dir Wind Speed Gust Speed Precip Events Conditions
12:53 AM 62.1 °F - 54.0 °F 75% 30.04 in 10.0 mi Calm Calm - N/A   Clear
1:53 AM 61.0 °F - 54.0 °F 78% 30.03 in 10.0 mi Calm Calm - N/A   Scattered Clouds
2:53 AM 59.0 °F - 54.0 °F 83% 30.02 in 10.0 mi NNE 3.5 mph - N/A   Clear
3:53 AM 59.0 °F - 54.0 °F 83% 30.02 in 10.0 mi Calm Calm - N/A   Clear
4:53 AM 60.1 °F - 54.0 °F 80% 30.02 in 10.0 mi Calm Calm - N/A   Clear
5:53 AM 57.0 °F - 53.1 °F 87% 30.03 in 10.0 mi Calm Calm - N/A   Clear
6:53 AM 59.0 °F - 54.0 °F 83% 30.04 in 10.0 mi Calm Calm - N/A   Clear
7:53 AM 64.9 °F - 55.9 °F 73% 30.05 in 10.0 mi Calm Calm - N/A   Clear
8:53 AM 71.1 °F - 55.9 °F 59% 30.06 in 10.0 mi South 5.8 mph - N/A   Clear
9:53 AM 75.9 °F - 57.9 °F 54% 30.06 in 10.0 mi SW 6.9 mph - N/A   Clear
10:53 AM 81.0 °F 81.3 °F 59.0 °F 47% 30.05 in 10.0 mi SW 10.4 mph - N/A   Clear
11:53 AM 82.9 °F 81.8 °F 53.1 °F 36% 30.04 in 10.0 mi SSW 9.2 mph - N/A   Clear
12:53 PM 82.9 °F - 50.0 °F 32% 30.03 in 10.0 mi Variable 6.9 mph - N/A   Mostly Cloudy
1:53 PM 84.0 °F - 51.1 °F 32% 30.01 in 10.0 mi WSW 9.2 mph - N/A   Mostly Cloudy
2:53 PM 84.0 °F - 50.0 °F 31% 30.00 in 10.0 mi SW 6.9 mph - N/A   Partly Cloudy
3:53 PM 86.0 °F - 48.9 °F 28% 29.98 in 10.0 mi Variable 4.6 mph - N/A   Clear
4:53 PM 84.9 °F - 48.9 °F 29% 29.97 in 10.0 mi SSE 3.5 mph - N/A   Scattered Clouds
5:53 PM 82.9 °F - 52.0 °F 34% 29.96 in 10.0 mi ESE 8.1 mph - N/A   Scattered Clouds
6:53 PM 82.9 °F - 52.0 °F 34% 29.96 in 10.0 mi ESE 6.9 mph - N/A   Partly Cloudy
7:53 PM 81.0 °F 80.4 °F 53.1 °F 38% 29.96 in 10.0 mi ESE 5.8 mph - N/A   Partly Cloudy
8:53 PM 75.9 °F - 57.0 °F 52% 29.97 in 10.0 mi Calm Calm - N/A   Partly Cloudy
9:53 PM 73.9 °F - 57.0 °F 55% 29.98 in 10.0 mi East 3.5 mph - N/A   Partly Cloudy
10:53 PM 68.0 °F - 57.0 °F 68% 30.00 in 10.0 mi Calm Calm - N/A   Clear
11:53 PM 69.1 °F - 57.0 °F 65% 30.00 in 10.0 mi ENE 3.5 mph - N/A   Clear